This is the latest recevied weather packets stored in our database for station/object 9W2XPF-13. If no packets are shown the sender has not sent any weather packets the latest 10 day(s).
| Time | Temp. | Humidity | Pressure | Rain* | Wind** | Luminosity | Snow |
|---|---|---|---|---|---|---|---|
| 1777786802 | 31.11° C | 70% | 1008.2 hPa | 0 mm | - | - | - |
| 1777786682 | 31.11° C | 70% | 1008.4 hPa | 0 mm | - | - | - |
| 1777786562 | 30.56° C | 73% | 1008.3 hPa | 0 mm | - | - | - |
| 1777786442 | 30.56° C | 73% | 1008.2 hPa | 0 mm | - | - | - |
| 1777786322 | 30.56° C | 73% | 1008.4 hPa | 0 mm | - | - | - |
| 1777786202 | 30° C | 74% | 1008.2 hPa | 0 mm | - | - | - |
| 1777786082 | 30° C | 74% | 1008.2 hPa | 0 mm | - | - | - |
| 1777785962 | 30° C | 76% | 1008.2 hPa | 0 mm | - | - | - |
| 1777785842 | 30° C | 77% | 1008.3 hPa | 0 mm | - | - | - |
| 1777785722 | 30° C | 78% | 1008.1 hPa | 0 mm | - | - | - |
| 1777785602 | 30° C | 78% | 1008.2 hPa | 0 mm | - | - | - |
| 1777785482 | 30.56° C | 78% | 1008.3 hPa | 0 mm | - | - | - |
| 1777785362 | 30.56° C | 79% | 1008.2 hPa | 0 mm | - | - | - |
| 1777785242 | 30.56° C | 79% | 1008.7 hPa | 0 mm | - | - | - |
| 1777785122 | 30.56° C | 79% | 1008.6 hPa | 0 mm | - | - | - |
| 1777785002 | 31.11° C | 77% | 1008.6 hPa | 0 mm | - | - | - |
| 1777784882 | 31.67° C | 77% | 1008.5 hPa | 0 mm | - | - | - |
| 1777784762 | 31.67° C | 76% | 1008.5 hPa | 0 mm | - | - | - |
| 1777784642 | 31.67° C | 77% | 1008.4 hPa | 0 mm | - | - | - |
| 1777784522 | 31.67° C | 75% | 1008.4 hPa | 0 mm | - | - | - |
| 1777784402 | 31.67° C | 74% | 1008.4 hPa | 0 mm | - | - | - |
| 1777784282 | 31.67° C | 76% | 1008.3 hPa | 0 mm | - | - | - |
| 1777784162 | 31.67° C | 74% | 1008.2 hPa | 0 mm | - | - | - |
| 1777784042 | 31.67° C | 74% | 1008.4 hPa | 0 mm | - | - | - |
| 1777783922 | 31.67° C | 75% | 1008.3 hPa | 0 mm | - | - | - |
* Rain latest hour (hover to see other rain measurements)
** Current wind speed in m/s (hover to see current wind gust speed)